Cincinnati, OH

4:41 PM EST on December 06, 2019 (GMT -0500)
Cincinnati Municipal-Lunken

Weather History for KLUK - September, 2019

Change the Weather History Date:

Thursday, September 12, 2019

  Actual Average Record
Temperature  
Mean Temperature 80 °F -  
Max Temperature 93 °F 79 °F 93 °F (1999)
Min Temperature 66 °F 58 °F 46 °F (1959)
Cooling Degree Days 14    
Growing Degree Days 30 (Base 50)    
Moisture  
Dew Point 69 °F    
Average Humidity 83    
Maximum Humidity 100    
Minimum Humidity 41    
Precipitation  
Precipitation 0.00 in - - ()
Sea Level Pressure  
Sea Level Pressure 30.12 in    
Wind  
Wind Speed 1 mph ()    
Max Wind Speed 9 mph    
Max Gust Speed 21 mph    
Visibility 6.4 miles    
Events Fog    
Averages and records for this station are not official NWS values.
T = Trace of Precipitation, MM = Missing Value Source: Averaged Metar Reports

Daily Weather History Graph

Daily Weather History Graph

Search for Another Location

Airport or City:

Astronomy

Sep. 12, 2019 Rise Set
Actual Time 7:16 AM EDT 7:51 PM EDT
Civil Twilight 6:49 AM EDT 8:18 PM EDT
Nautical Twilight 6:17 AM EDT 8:49 PM EDT
Astronomical Twilight 5:44 AM EDT 9:22 PM EDT
Moon 7:34 PM EDT (9/12) 5:36 AM EDT (9/12)
Length of Visible Light 13h 28m
Length of Day
12h 35m
Waxing Gibbous, 98% of the Moon is Illuminated
Sep 12
Waxing Gibbous
Sep 14
Full
Sep 21
Last Quarter
Sep 28
New
Oct 5
First Quarter

Hourly Weather History & Observations

Time (EDT) Temp. Heat Index Dew Point Humidity Pressure Visibility Wind Dir Wind Speed Gust Speed Precip Events Conditions
12:53 AM 71.1 °F - 69.1 °F 93% 30.11 in 7.0 mi Calm Calm - N/A   Clear
1:53 AM 70.0 °F - 69.1 °F 97% 30.10 in 6.0 mi Calm Calm - N/A   Clear
2:53 AM 69.1 °F - 69.1 °F 100% 30.10 in 5.0 mi Calm Calm - N/A   Clear
3:01 AM 68.0 °F - 68.0 °F 100% 30.11 in 1.5 mi Calm Calm - N/A   Clear
3:18 AM 69.1 °F - 69.1 °F 100% 30.11 in 4.0 mi Calm Calm - N/A   Clear
3:53 AM 69.1 °F - 68.0 °F 96% 30.10 in 3.0 mi Calm Calm - N/A   Clear
4:28 AM 69.1 °F - 68.0 °F 96% 30.12 in 2.5 mi Calm Calm - N/A   Clear
4:40 AM 68.0 °F - 68.0 °F 100% 30.12 in 1.5 mi Calm Calm - N/A   Clear
4:47 AM 68.0 °F - 68.0 °F 100% 30.13 in 3.0 mi Calm Calm - N/A   Clear
4:53 AM 68.0 °F - 68.0 °F 100% 30.12 in 3.0 mi Calm Calm - N/A   Clear
5:53 AM 68.0 °F - 68.0 °F 100% 30.13 in 1.2 mi Calm Calm - N/A   Clear
6:12 AM 66.9 °F - 66.0 °F 97% 30.15 in 0.5 mi ENE 3.5 mph - N/A Fog Fog
6:24 AM 68.0 °F - 68.0 °F 100% 30.16 in 1.0 mi ENE 3.5 mph - N/A   Clear
6:33 AM 66.9 °F - 66.9 °F 100% 30.16 in 3.0 mi Calm Calm - N/A   Clear
6:53 AM 66.0 °F - 66.0 °F 100% 30.15 in 4.0 mi Calm Calm - N/A   Partly Cloudy
7:53 AM 66.0 °F - 66.0 °F 100% 30.17 in 6.0 mi Calm Calm - N/A   Clear
8:53 AM 73.0 °F - 71.1 °F 93% 30.17 in 7.0 mi Calm Calm - N/A   Clear
9:53 AM 80.1 °F 83.8 °F 72.0 °F 76% 30.16 in 10.0 mi Calm Calm - N/A   Clear
10:53 AM 84.0 °F 89.6 °F 72.0 °F 67% 30.15 in 10.0 mi SW 3.5 mph - N/A   Clear
11:53 AM 88.0 °F 93.8 °F 71.1 °F 57% 30.14 in 10.0 mi Variable 6.9 mph - N/A   Scattered Clouds
12:53 PM 88.0 °F 92.9 °F 70.0 °F 55% 30.13 in 10.0 mi WSW 9.2 mph 20.7 mph N/A   Scattered Clouds
1:53 PM 90.0 °F 95.4 °F 70.0 °F 52% 30.12 in 10.0 mi West 9.2 mph - N/A   Scattered Clouds
2:53 PM 91.0 °F 95.2 °F 68.0 °F 47% 30.11 in 10.0 mi WSW 5.8 mph - N/A   Scattered Clouds
3:53 PM 91.9 °F 95.9 °F 68.0 °F 45% 30.09 in 10.0 mi Variable 4.6 mph - N/A   Mostly Cloudy
4:53 PM 93.0 °F 95.9 °F 66.0 °F 41% 30.08 in 10.0 mi Calm Calm - N/A   Scattered Clouds
5:53 PM 90.0 °F 93.6 °F 68.0 °F 48% 30.08 in 10.0 mi SW 4.6 mph - N/A   Partly Cloudy
6:53 PM 87.1 °F 92.8 °F 71.1 °F 59% 30.07 in 10.0 mi SSE 3.5 mph - N/A   Partly Cloudy
7:53 PM 80.1 °F 83.6 °F 71.1 °F 74% 30.09 in 10.0 mi Calm Calm - N/A   Clear
8:53 PM 75.0 °F - 69.1 °F 82% 30.09 in 10.0 mi NE 3.5 mph - N/A   Clear
9:53 PM 73.0 °F - 70.0 °F 90% 30.11 in 10.0 mi Calm Calm - N/A   Clear
10:53 PM 73.0 °F - 70.0 °F 90% 30.11 in 8.0 mi Calm Calm - N/A   Clear
11:53 PM 72.0 °F - 71.1 °F 97% 30.11 in 6.0 mi Calm Calm - N/A   Clear